CFG8H EDDF-EDDH

Flight info

Callsign CFG8H
Flight time 0h 57m
Altitude 33000
Route MARUN3W/25C MARUN Y150 TOLGI DCT SAS/N0442F320 P605 NOLGO NOLGO3D
Aircraft A321/M-SDE3FGHIRWY/LB1

Departure

Time 2026-05-05 20:57
Airport Frankfurt Main Airport (EDDF)

Arrival

Time 2026-05-05 21:54
Airport Hamburg Helmut Schmidt Airport (EDDH)
Time Latitude Longitude Altitude Speed Heading
2026-05-05 20:31 50.04042 8.55545 354 ft 0 kts 159°
2026-05-05 20:48 50.04041 8.55545 351 ft 1 kts 159°
2026-05-05 20:49 50.03999 8.55571 352 ft 9 kts 158°
2026-05-05 20:49 50.03977 8.55619 351 ft 8 kts 92°
2026-05-05 20:49 50.03988 8.55705 352 ft 8 kts 71°
2026-05-05 20:49 50.04021 8.55838 355 ft 18 kts 69°
2026-05-05 20:50 50.04065 8.56020 352 ft 17 kts 69°
2026-05-05 20:50 50.04106 8.56191 357 ft 16 kts 69°
2026-05-05 20:50 50.04145 8.56352 360 ft 15 kts 69°
2026-05-05 20:50 50.04187 8.56529 359 ft 22 kts 70°
2026-05-05 20:51 50.04237 8.56740 359 ft 20 kts 70°
2026-05-05 20:51 50.04282 8.56930 359 ft 18 kts 70°
2026-05-05 20:51 50.04325 8.57108 364 ft 17 kts 70°
2026-05-05 20:51 50.04364 8.57276 363 ft 16 kts 70°
2026-05-05 20:52 50.04403 8.57438 364 ft 16 kts 70°
2026-05-05 20:52 50.04443 8.57603 370 ft 15 kts 70°
2026-05-05 20:52 50.04479 8.57753 365 ft 14 kts 69°
2026-05-05 20:52 50.04514 8.57899 366 ft 15 kts 70°
2026-05-05 20:53 50.04550 8.58053 364 ft 16 kts 69°
2026-05-05 20:53 50.04587 8.58205 369 ft 14 kts 69°
2026-05-05 20:53 50.04626 8.58367 369 ft 16 kts 70°
2026-05-05 20:53 50.04653 8.58496 372 ft 11 kts 84°
2026-05-05 20:54 50.04613 8.58579 371 ft 10 kts 156°
2026-05-05 20:54 50.04555 8.58613 370 ft 9 kts 163°
2026-05-05 20:54 50.04497 8.58599 371 ft 8 kts 216°
2026-05-05 20:54 50.04478 8.58548 370 ft 0 kts 247°
2026-05-05 20:56 50.04472 8.58527 370 ft 11 kts 247°
2026-05-05 20:56 50.04375 8.58119 371 ft 78 kts 250°
2026-05-05 20:56 50.04096 8.56959 365 ft 145 kts 249°
2026-05-05 20:56 50.03693 8.55318 591 ft 166 kts 248°
2026-05-05 20:57 50.03168 8.53133 1552 ft 163 kts 248°
2026-05-05 20:57 50.02880 8.52019 1826 ft 174 kts 246°
2026-05-05 20:57 50.02356 8.50218 2156 ft 191 kts 238°
2026-05-05 20:57 50.01449 8.48671 2598 ft 200 kts 216°
2026-05-05 20:58 50.00153 8.47865 3178 ft 206 kts 189°
2026-05-05 20:58 49.98723 8.47646 4006 ft 204 kts 188°
2026-05-05 20:58 49.97307 8.47391 4784 ft 208 kts 189°
2026-05-05 20:58 49.95882 8.47092 5567 ft 206 kts 194°
2026-05-05 20:59 49.94477 8.46410 6102 ft 220 kts 202°
2026-05-05 20:59 49.92968 8.45582 6523 ft 240 kts 203°
2026-05-05 20:59 49.91574 8.44214 7267 ft 240 kts 227°
2026-05-05 20:59 49.90696 8.41996 7944 ft 247 kts 253°
2026-05-05 21:00 49.90602 8.39368 8715 ft 253 kts 282°
2026-05-05 21:00 49.91413 8.36925 9508 ft 263 kts 310°
2026-05-05 21:00 49.92949 8.35340 10226 ft 272 kts 336°
2026-05-05 21:00 49.94795 8.34375 10678 ft 291 kts 338°
2026-05-05 21:01 49.96762 8.33212 10937 ft 313 kts 335°
2026-05-05 21:01 49.98836 8.31827 11130 ft 337 kts 333°
2026-05-05 21:01 50.01030 8.30296 11485 ft 353 kts 335°
2026-05-05 21:01 50.03414 8.29202 12113 ft 362 kts 348°
2026-05-05 21:02 50.05954 8.28964 12840 ft 370 kts
2026-05-05 21:02 50.08509 8.29653 13567 ft 377 kts 15°
2026-05-05 21:02 50.10971 8.30953 14206 ft 381 kts 18°
2026-05-05 21:02 50.13492 8.32295 14864 ft 385 kts 17°
2026-05-05 21:03 50.16038 8.33644 15493 ft 389 kts 17°
2026-05-05 21:03 50.18623 8.35006 16138 ft 393 kts 17°
2026-05-05 21:03 50.21230 8.36372 16777 ft 397 kts 18°
2026-05-05 21:03 50.23862 8.37750 17412 ft 401 kts 18°
2026-05-05 21:04 50.26516 8.39146 18033 ft 405 kts 18°
2026-05-05 21:04 50.29193 8.40561 18574 ft 408 kts 18°
2026-05-05 21:04 50.31890 8.42002 19102 ft 411 kts 19°
2026-05-05 21:04 50.34591 8.43467 19656 ft 414 kts 19°
2026-05-05 21:05 50.37329 8.44964 20170 ft 417 kts 19°
2026-05-05 21:05 50.39925 8.46387 20678 ft 420 kts 20°
2026-05-05 21:05 50.42649 8.47883 21206 ft 422 kts 20°
2026-05-05 21:05 50.45431 8.49416 21745 ft 425 kts 20°
2026-05-05 21:06 50.48227 8.50948 22278 ft 427 kts 20°
2026-05-05 21:06 50.51057 8.52394 22799 ft 430 kts 19°
2026-05-05 21:06 50.53929 8.53769 23321 ft 433 kts 18°
2026-05-05 21:06 50.56832 8.55114 23750 ft 435 kts 18°
2026-05-05 21:07 50.59742 8.56455 24196 ft 437 kts 18°
2026-05-05 21:07 50.62666 8.57813 24620 ft 439 kts 18°
2026-05-05 21:07 50.65595 8.59190 25047 ft 441 kts 19°
2026-05-05 21:07 50.68507 8.60581 25446 ft 443 kts 19°
2026-05-05 21:08 50.71465 8.62011 25856 ft 446 kts 19°
2026-05-05 21:08 50.74436 8.63459 26264 ft 448 kts 19°
2026-05-05 21:08 50.77411 8.64976 26660 ft 449 kts 24°
2026-05-05 21:08 50.80221 8.67097 27045 ft 448 kts 33°
2026-05-05 21:09 50.82773 8.69909 27432 ft 447 kts 43°
2026-05-05 21:09 50.84998 8.73309 27810 ft 445 kts 52°
2026-05-05 21:09 50.86912 8.77154 28194 ft 445 kts 56°
2026-05-05 21:09 50.88786 8.81059 28581 ft 447 kts 56°
2026-05-05 21:10 50.90643 8.84932 28955 ft 449 kts 56°
2026-05-05 21:10 50.92532 8.88878 29338 ft 450 kts 56°
2026-05-05 21:10 50.94425 8.92841 29761 ft 451 kts 56°
2026-05-05 21:10 50.96314 8.96801 30230 ft 449 kts 56°
2026-05-05 21:11 50.98195 9.00753 30645 ft 448 kts 57°
2026-05-05 21:11 51.00073 9.04706 30999 ft 450 kts 57°
2026-05-05 21:11 51.01959 9.08689 31338 ft 451 kts 57°
2026-05-05 21:11 51.03842 9.12676 31723 ft 452 kts 57°
2026-05-05 21:12 51.05724 9.16666 32122 ft 452 kts 57°
2026-05-05 21:12 51.07611 9.20584 32524 ft 454 kts 53°
2026-05-05 21:12 51.09852 9.24165 32788 ft 460 kts 44°
2026-05-05 21:12 51.12448 9.27121 32840 ft 460 kts 34°
2026-05-05 21:13 51.15336 9.29332 32838 ft 462 kts 23°
2026-05-05 21:13 51.18446 9.30704 32838 ft 465 kts 15°
2026-05-05 21:13 51.24787 9.32866 32835 ft 467 kts 15°
2026-05-05 21:14 51.31106 9.35051 32827 ft 468 kts 15°
2026-05-05 21:14 51.37470 9.37281 32814 ft 468 kts 15°
2026-05-05 21:15 51.43838 9.39506 32815 ft 468 kts 15°
2026-05-05 21:15 51.50208 9.41733 32794 ft 470 kts 15°
2026-05-05 21:16 51.56601 9.43970 32794 ft 471 kts 15°
2026-05-05 21:16 51.62961 9.46213 32800 ft 471 kts 15°
2026-05-05 21:17 51.69371 9.48479 32800 ft 472 kts 14°
2026-05-05 21:17 51.75805 9.50759 32800 ft 474 kts 14°
2026-05-05 21:18 51.82230 9.53223 32811 ft 474 kts 21°
2026-05-05 21:18 51.88148 9.57583 32816 ft 470 kts 30°
2026-05-05 21:19 51.93977 9.62418 32814 ft 472 kts 30°
2026-05-05 21:19 51.99832 9.67273 32717 ft 474 kts 30°
2026-05-05 21:20 52.02768 9.69712 32448 ft 474 kts 30°
2026-05-05 21:20 52.05703 9.72158 32177 ft 474 kts 30°
2026-05-05 21:20 52.08637 9.74608 31941 ft 474 kts 30°
2026-05-05 21:20 52.11572 9.77064 31670 ft 474 kts 30°
2026-05-05 21:21 52.14470 9.79492 31410 ft 475 kts 29°
2026-05-05 21:21 52.17414 9.81957 31162 ft 476 kts 28°
2026-05-05 21:21 52.20363 9.84430 30911 ft 477 kts 28°
2026-05-05 21:21 52.23313 9.86901 30662 ft 477 kts 27°
2026-05-05 21:22 52.26386 9.88945 30419 ft 478 kts 18°
2026-05-05 21:22 52.29592 9.90401 30175 ft 478 kts 15°
2026-05-05 21:22 52.32802 9.91798 29929 ft 478 kts 15°
2026-05-05 21:22 52.36018 9.93208 29647 ft 478 kts 14°
2026-05-05 21:23 52.39234 9.94623 29359 ft 479 kts 14°
2026-05-05 21:23 52.42411 9.96027 29088 ft 480 kts 15°
2026-05-05 21:23 52.45632 9.97454 28723 ft 477 kts 15°
2026-05-05 21:23 52.48826 9.98871 28006 ft 474 kts 15°
2026-05-05 21:24 52.51996 10.00281 27350 ft 470 kts 14°
2026-05-05 21:24 52.55147 10.01683 26687 ft 467 kts 14°
2026-05-05 21:24 52.58268 10.03073 26050 ft 463 kts 14°
2026-05-05 21:24 52.61366 10.04454 25410 ft 460 kts 14°
2026-05-05 21:25 52.64443 10.05829 24782 ft 457 kts 14°
2026-05-05 21:25 52.67497 10.07195 24153 ft 453 kts 14°
2026-05-05 21:25 52.70530 10.08554 23539 ft 450 kts 14°
2026-05-05 21:25 52.73504 10.09888 22894 ft 447 kts 14°
2026-05-05 21:26 52.76489 10.11175 22333 ft 439 kts 10°
2026-05-05 21:26 52.79487 10.11826 21773 ft 431 kts
2026-05-05 21:26 52.82457 10.11931 21268 ft 423 kts 359°
2026-05-05 21:26 52.85381 10.12018 20747 ft 417 kts 359°
2026-05-05 21:27 52.88258 10.12111 20270 ft 410 kts 360°
2026-05-05 21:27 52.91092 10.12204 19795 ft 404 kts 360°
2026-05-05 21:27 52.93883 10.12296 19346 ft 398 kts
2026-05-05 21:27 52.96592 10.12385 18909 ft 392 kts
2026-05-05 21:28 52.99299 10.12475 18463 ft 387 kts
2026-05-05 21:28 53.01979 10.12565 18002 ft 383 kts
2026-05-05 21:28 53.04625 10.12656 17538 ft 378 kts
2026-05-05 21:28 53.07235 10.12747 17094 ft 373 kts
2026-05-05 21:29 53.09820 10.12830 16651 ft 370 kts
2026-05-05 21:29 53.12387 10.12912 16198 ft 368 kts
2026-05-05 21:29 53.14934 10.12994 15745 ft 365 kts 360°
2026-05-05 21:29 53.17466 10.13081 15279 ft 363 kts
2026-05-05 21:30 53.19981 10.13164 14818 ft 360 kts 360°
2026-05-05 21:30 53.22446 10.13241 14442 ft 355 kts
2026-05-05 21:30 53.24872 10.13321 14316 ft 343 kts 360°
2026-05-05 21:30 53.27215 10.13400 14200 ft 331 kts
2026-05-05 21:31 53.29484 10.13482 13972 ft 323 kts
2026-05-05 21:31 53.31718 10.13563 13648 ft 320 kts
2026-05-05 21:31 53.33910 10.13637 13494 ft 310 kts 360°
2026-05-05 21:31 53.36025 10.13711 13357 ft 299 kts
2026-05-05 21:32 53.38072 10.13784 13223 ft 289 kts 360°
2026-05-05 21:32 53.40022 10.13884 13090 ft 279 kts
2026-05-05 21:32 53.41838 10.14824 12950 ft 271 kts 30°
2026-05-05 21:32 53.43245 10.16854 12697 ft 266 kts 54°
2026-05-05 21:33 53.44037 10.19604 12440 ft 262 kts 78°
2026-05-05 21:33 53.44139 10.22616 12176 ft 259 kts 101°
2026-05-05 21:33 53.43568 10.25436 11909 ft 255 kts 123°
2026-05-05 21:33 53.42428 10.27660 11672 ft 251 kts 145°
2026-05-05 21:34 53.40903 10.29000 11419 ft 247 kts 166°
2026-05-05 21:34 53.39211 10.29381 11166 ft 245 kts 180°
2026-05-05 21:34 53.37504 10.29388 10958 ft 244 kts 183°
2026-05-05 21:34 53.35834 10.29301 10901 ft 243 kts 184°
2026-05-05 21:35 53.34142 10.29192 10907 ft 244 kts 183°
2026-05-05 21:35 53.32440 10.29086 10906 ft 244 kts 184°
2026-05-05 21:35 53.30755 10.28850 10905 ft 242 kts 195°
2026-05-05 21:35 53.29212 10.27788 10893 ft 240 kts 215°
2026-05-05 21:36 53.27992 10.25917 10901 ft 239 kts 234°
2026-05-05 21:36 53.27240 10.23442 10900 ft 240 kts 254°
2026-05-05 21:36 53.27057 10.20682 10900 ft 242 kts 275°
2026-05-05 21:36 53.27480 10.17959 10903 ft 244 kts 295°
2026-05-05 21:37 53.28453 10.15680 10902 ft 246 kts 316°
2026-05-05 21:37 53.29875 10.14092 10903 ft 249 kts 336°
2026-05-05 21:37 53.31566 10.13464 10911 ft 251 kts 355°
2026-05-05 21:37 53.33323 10.13410 10907 ft 253 kts 359°
2026-05-05 21:38 53.35082 10.13486 10901 ft 253 kts
2026-05-05 21:38 53.36840 10.13599 10905 ft 253 kts
2026-05-05 21:38 53.38596 10.13711 10908 ft 253 kts
2026-05-05 21:38 53.40366 10.13810 10847 ft 266 kts 359°
2026-05-05 21:39 53.42324 10.13843 10708 ft 291 kts 358°
2026-05-05 21:39 53.44366 10.13835 10545 ft 295 kts 358°
2026-05-05 21:39 53.46391 10.13814 10387 ft 295 kts 358°
2026-05-05 21:39 53.48443 10.13789 10227 ft 295 kts 358°
2026-05-05 21:40 53.50491 10.13769 10072 ft 294 kts 358°
2026-05-05 21:40 53.52529 10.13753 9912 ft 293 kts 358°
2026-05-05 21:40 53.54565 10.13739 9746 ft 292 kts 358°
2026-05-05 21:40 53.56595 10.13726 9580 ft 292 kts 358°
2026-05-05 21:41 53.58621 10.13711 9426 ft 291 kts 358°
2026-05-05 21:41 53.60604 10.13697 9274 ft 284 kts 358°
2026-05-05 21:41 53.62536 10.13686 9133 ft 272 kts 358°
2026-05-05 21:41 53.64387 10.13564 8982 ft 260 kts 349°
2026-05-05 21:42 53.66086 10.12704 8743 ft 251 kts 332°
2026-05-05 21:42 53.67629 10.11368 8622 ft 250 kts 331°
2026-05-05 21:42 53.69176 10.10028 8490 ft 250 kts 331°
2026-05-05 21:42 53.70721 10.08693 8361 ft 249 kts 331°
2026-05-05 21:43 53.72263 10.07360 8234 ft 249 kts 331°
2026-05-05 21:43 53.73818 10.06015 7849 ft 251 kts 331°
2026-05-05 21:43 53.75375 10.04668 7473 ft 252 kts 331°
2026-05-05 21:43 53.76917 10.03333 7104 ft 252 kts 332°
2026-05-05 21:44 53.78464 10.01996 6767 ft 247 kts 332°
2026-05-05 21:44 53.79984 10.00685 6392 ft 244 kts 333°
2026-05-05 21:44 53.81489 9.99386 6008 ft 242 kts 333°
2026-05-05 21:44 53.82979 9.98094 5622 ft 240 kts 333°
2026-05-05 21:45 53.84461 9.96806 5238 ft 238 kts 334°
2026-05-05 21:45 53.85928 9.95531 4858 ft 236 kts 334°
2026-05-05 21:45 53.87387 9.94258 4471 ft 235 kts 334°
2026-05-05 21:45 53.88816 9.93006 4085 ft 234 kts 335°
2026-05-05 21:46 53.90262 9.91741 3690 ft 233 kts 336°
2026-05-05 21:46 53.91699 9.90470 3311 ft 233 kts 333°
2026-05-05 21:46 53.92864 9.88564 3011 ft 237 kts 303°
2026-05-05 21:46 53.93361 9.85887 3011 ft 243 kts 274°
2026-05-05 21:47 53.93048 9.83097 3011 ft 243 kts 244°
2026-05-05 21:47 53.92271 9.80544 3013 ft 243 kts 240°
2026-05-05 21:47 53.91177 9.78412 3011 ft 240 kts 211°
2026-05-05 21:47 53.89648 9.77469 3015 ft 233 kts 181°
2026-05-05 21:48 53.88106 9.77844 3032 ft 226 kts 155°
2026-05-05 21:48 53.86768 9.79064 3042 ft 210 kts 143°
2026-05-05 21:48 53.85548 9.80295 3010 ft 200 kts 147°
2026-05-05 21:48 53.84322 9.81356 2979 ft 195 kts 149°
2026-05-05 21:49 53.83155 9.82273 2998 ft 174 kts 149°
2026-05-05 21:49 53.82108 9.83080 2936 ft 159 kts 148°
2026-05-05 21:49 53.81136 9.83875 2946 ft 153 kts 147°
2026-05-05 21:49 53.80192 9.84677 2922 ft 151 kts 146°
2026-05-05 21:50 53.79254 9.85463 2907 ft 151 kts 146°
2026-05-05 21:50 53.78319 9.86253 2891 ft 150 kts 146°
2026-05-05 21:50 53.77387 9.87056 2840 ft 151 kts 145°
2026-05-05 21:50 53.76452 9.87854 2565 ft 155 kts 146°
2026-05-05 21:51 53.75467 9.88685 2209 ft 162 kts 146°
2026-05-05 21:51 53.74490 9.89542 2004 ft 153 kts 146°
2026-05-05 21:51 53.73576 9.90347 1858 ft 145 kts 144°
2026-05-05 21:51 53.72701 9.91157 1681 ft 142 kts 143°
2026-05-05 21:52 53.70957 9.92718 1311 ft 143 kts 146°
2026-05-05 21:52 53.70071 9.93467 1025 ft 143 kts 148°
2026-05-05 21:52 53.69206 9.94254 857 ft 144 kts 147°
2026-05-05 21:53 53.68298 9.95011 694 ft 146 kts 151°
2026-05-05 21:53 53.67405 9.95781 573 ft 143 kts 147°
2026-05-05 21:53 53.66528 9.96579 353 ft 143 kts 150°
2026-05-05 21:53 53.65641 9.97343 133 ft 144 kts 149°
2026-05-05 21:54 53.64768 9.98098 59 ft 134 kts 150°
2026-05-05 21:54 53.64095 9.98697 53 ft 82 kts 154°
2026-05-05 21:54 53.63737 9.98996 48 ft 33 kts 152°
2026-05-05 21:54 53.63566 9.99143 47 ft 27 kts 154°
2026-05-05 21:55 53.63397 9.99285 47 ft 27 kts 153°
2026-05-05 21:55 53.63234 9.99427 47 ft 26 kts 152°
2026-05-05 21:55 53.63170 9.99558 43 ft 14 kts 70°
2026-05-05 21:55 53.63217 9.99661 49 ft 5 kts 49°
2026-05-05 21:56 53.63233 9.99691 49 ft 3 kts 49°
2026-05-05 21:56 53.63254 9.99726 49 ft 5 kts 43°
2026-05-05 21:56 53.63300 9.99803 49 ft 15 kts 46°
2026-05-05 21:56 53.63382 9.99968 49 ft 19 kts 51°
2026-05-05 21:57 53.63427 10.00117 49 ft 12 kts 101°
2026-05-05 21:57 53.63372 10.00221 49 ft 12 kts 155°
2026-05-05 21:57 53.63293 10.00237 49 ft 11 kts 177°
2026-05-05 21:57 53.63219 10.00245 49 ft 9 kts 176°
2026-05-05 21:58 53.63195 10.00286 49 ft 3 kts 82°
2026-05-05 21:58 53.63203 10.00330 49 ft 4 kts 81°
2026-05-05 21:58 53.63206 10.00363 49 ft 0 kts 83°